{"data":{"norad_id":62492,"epoch":"2026-09-21T16:21:36.010656Z","epoch_age_seconds":72408,"freshness":"FRESH","line1":"1 62492U 25003F   26264.68166679  .00008830  00000+0  32996-3 0  9992","line2":"2 62492  42.9982 262.3113 0001072 266.7420  93.3309 15.27584016 96522","mean_motion":15.27584016,"eccentricity":0.0001072,"inclination_deg":42.9982,"raan_deg":262.3113,"arg_perigee_deg":266.742,"mean_anomaly_deg":93.3309,"bstar":0.00032996,"rev_number":9652,"period_min":94.266500887503,"perigee_km":482.30155285687,"apogee_km":483.77258857763,"semimajor_km":6861.1740707172,"source":"CELESTRAK","updated_at":"2026-09-22T09:00:49.617041Z"}}